| time (UTC) | temp F | wind direction | speed MPH | gust MPH | rain 1hr in | rain 24hr in | rain mn in | humidity % | barometer mb |
| 20260509222509 | 96 | 193 | 2.0 | 5.0 | 0.00 | 0.00 | 0.00 | 66 | 1007.5 |
| 20260509222009 | 95 | 178 | 1.0 | 4.0 | 0.00 | 0.00 | 0.00 | 66 | 1007.4 |
| 20260509221531 | 95 | 247 | 1.0 | 3.0 | 0.00 | 0.00 | 0.00 | 67 | 1007.4 |
| 20260509221011 | 94 | 58 | 1.0 | 4.0 | 0.00 | 0.00 | 0.00 | 66 | 1007.5 |
| 20260509220513 | 92 | 247 | 1.0 | 4.0 | 0.00 | 0.00 | 0.00 | 68 | 1007.6 |
| 20260509220021 | 92 | 51 | 1.0 | 4.0 | 0.00 | 0.00 | 0.00 | 70 | 1007.5 |
| 20260509215512 | 92 | 309 | 1.0 | 4.0 | 0.00 | 0.00 | 0.00 | 69 | 1007.4 |
| 20260509215012 | 93 | 291 | 1.0 | 3.0 | 0.00 | 0.00 | 0.00 | 68 | 1007.5 |
| 20260509214530 | 93 | 265 | 0.0 | 3.0 | 0.00 | 0.00 | 0.00 | 68 | 1007.5 |
| 20260509214009 | 94 | 67 | 0.0 | 6.0 | 0.00 | 0.00 | 0.00 | 66 | 1007.4 |
| 20260509213508 | 94 | 205 | 1.0 | 6.0 | 0.00 | 0.00 | 0.00 | 72 | 1007.6 |
| 20260509213016 | 92 | 137 | 3.0 | 6.0 | 0.00 | 0.00 | 0.00 | 72 | 1007.6 |
| 20260509212507 | 91 | 334 | 1.0 | 4.0 | 0.00 | 0.00 | 0.00 | 72 | 1007.6 |
| 20260509212010 | 93 | 314 | 2.0 | 6.0 | 0.00 | 0.00 | 0.00 | 69 | 1007.7 |
| 20260509211529 | 93 | 9 | 1.0 | 6.0 | 0.00 | 0.00 | 0.00 | 70 | 1007.7 |
| 20260509211011 | 93 | 116 | 2.0 | 4.0 | 0.00 | 0.00 | 0.00 | 72 | 1007.6 |
| 20260509210516 | 92 | 56 | 1.0 | 4.0 | 0.00 | 0.00 | 0.00 | 73 | 1007.8 |
| 20260509210027 | 91 | 221 | 1.0 | 4.0 | 0.00 | 0.00 | 0.00 | 72 | 1007.8 |
| 20260509205508 | 91 | 30 | 1.0 | 6.0 | 0.00 | 0.00 | 0.00 | 71 | 1008.0 |
| 20260509205006 | 91 | 30 | 1.0 | 6.0 | 0.00 | 0.00 | 0.00 | 71 | 1008.0 |
| 20260509204520 | 92 | 291 | 1.0 | 6.0 | 0.00 | 0.00 | 0.00 | 72 | 1008.1 |
| 20260509204011 | 91 | 90 | 2.0 | 6.0 | 0.00 | 0.00 | 0.00 | 77 | 1008.1 |
| 20260509203510 | 90 | 16 | 2.0 | 4.0 | 0.00 | 0.00 | 0.00 | 79 | 1008.1 |
| 20260509203029 | 89 | 170 | 1.0 | 5.0 | 0.00 | 0.00 | 0.00 | 76 | 1008.2 |
| 20260509202510 | 89 | 19 | 1.0 | 5.0 | 0.00 | 0.00 | 0.00 | 74 | 1008.4 |
| 20260509202019 | 90 | 309 | 0.0 | 4.0 | 0.00 | 0.00 | 0.00 | 72 | 1008.4 |
| 20260509201525 | 90 | 265 | 1.0 | 4.0 | 0.00 | 0.00 | 0.00 | 72 | 1008.5 |
| 20260509201012 | 90 | 325 | 2.0 | 6.0 | 0.00 | 0.00 | 0.00 | 76 | 1008.6 |
| 20260509200511 | 90 | 30 | 2.0 | 6.0 | 0.00 | 0.00 | 0.00 | 72 | 1008.6 |
| 20260509200023 | 90 | 238 | 1.0 | 6.0 | 0.00 | 0.00 | 0.00 | 79 | 1008.7 |
| 20260509195513 | 89 | 67 | 2.0 | 6.0 | 0.00 | 0.00 | 0.00 | 76 | 1008.7 |
| 20260509195010 | 89 | 254 | 2.0 | 5.0 | 0.00 | 0.00 | 0.00 | 74 | 1008.7 |
| 20260509194529 | 89 | 9 | 2.0 | 9.0 | 0.00 | 0.00 | 0.00 | 75 | 1008.7 |
| 20260509194015 | 89 | 9 | 2.0 | 10.0 | 0.00 | 0.00 | 0.00 | 73 | 1008.8 |
| 20260509193511 | 89 | 328 | 2.0 | 10.0 | 0.00 | 0.00 | 0.00 | 73 | 1008.7 |
| 20260509193030 | 89 | 51 | 2.0 | 6.0 | 0.00 | 0.00 | 0.00 | 78 | 1008.7 |
| 20260509192507 | 88 | 334 | 2.0 | 6.0 | 0.00 | 0.00 | 0.00 | 73 | 1008.8 |
| 20260509192010 | 88 | 309 | 1.0 | 6.0 | 0.00 | 0.00 | 0.00 | 74 | 1008.9 |
| 20260509191526 | 89 | 297 | 2.0 | 6.0 | 0.00 | 0.00 | 0.00 | 73 | 1008.9 |
| 20260509191011 | 88 | 184 | 2.0 | 6.0 | 0.00 | 0.00 | 0.00 | 74 | 1008.9 |
| 20260509190511 | 87 | 338 | 1.0 | 5.0 | 0.00 | 0.00 | 0.00 | 74 | 1009.0 |
| 20260509190025 | 88 | 257 | 2.0 | 5.0 | 0.00 | 0.00 | 0.00 | 74 | 1009.0 |
| 20260509185507 | 87 | 178 | 1.0 | 4.0 | 0.00 | 0.00 | 0.00 | 78 | 1009.0 |
| 20260509185014 | 87 | 319 | 1.0 | 4.0 | 0.00 | 0.00 | 0.00 | 78 | 1009.1 |
| 20260509184530 | 87 | 9 | 1.0 | 6.0 | 0.00 | 0.00 | 0.00 | 77 | 1009.2 |
| 20260509184012 | 87 | 61 | 1.0 | 6.0 | 0.00 | 0.00 | 0.00 | 77 | 1009.3 |
| 20260509183514 | 87 | 261 | 2.0 | 7.0 | 0.00 | 0.00 | 0.00 | 80 | 1009.4 |
| 20260509183026 | 87 | 249 | 2.0 | 7.0 | 0.00 | 0.00 | 0.00 | 77 | 1009.5 |
| 20260509182511 | 86 | 196 | 4.0 | 7.0 | 0.00 | 0.00 | 0.00 | 78 | 1009.5 |
| 20260509182013 | 86 | 225 | 2.0 | 5.0 | 0.00 | 0.00 | 0.00 | 79 | 1009.7 |
| 20260509181531 | 86 | 241 | 1.0 | 5.0 | 0.00 | 0.00 | 0.00 | 78 | 1009.7 |
| 20260509181010 | 86 | 42 | 1.0 | 5.0 | 0.00 | 0.00 | 0.00 | 78 | 1009.8 |
| 20260509180508 | 86 | 194 | 1.0 | 7.0 | 0.00 | 0.01 | 0.00 | 80 | 1009.8 |
| 20260509180024 | 85 | 184 | 3.0 | 9.0 | 0.00 | 0.01 | 0.00 | 79 | 1009.8 |
| 20260509175510 | 86 | 93 | 3.0 | 9.0 | 0.00 | 0.01 | 0.00 | 79 | 1010.0 |
| 20260509175011 | 85 | 229 | 2.0 | 8.0 | 0.00 | 0.01 | 0.00 | 80 | 1010.1 |
| 20260509174528 | 86 | 250 | 3.0 | 9.0 | 0.00 | 0.01 | 0.00 | 79 | 1010.2 |
| 20260509174010 | 86 | 190 | 2.0 | 10.0 | 0.00 | 0.01 | 0.00 | 79 | 1010.2 |
| 20260509173509 | 87 | 171 | 5.0 | 10.0 | 0.00 | 0.01 | 0.00 | 80 | 1010.2 |
| 20260509173016 | 87 | 217 | 4.0 | 11.0 | 0.00 | 0.01 | 0.00 | 82 | 1010.4 |
| 20260509172512 | 87 | 206 | 5.0 | 11.0 | 0.00 | 0.01 | 0.00 | 81 | 1010.3 |
| 20260509172010 | 87 | 194 | 4.0 | 10.0 | 0.00 | 0.01 | 0.00 | 82 | 1010.3 |
| 20260509171526 | 86 | 168 | 5.0 | 10.0 | 0.00 | 0.01 | 0.00 | 83 | 1010.3 |
| 20260509171011 | 86 | 185 | 4.0 | 9.0 | 0.00 | 0.01 | 0.00 | 84 | 1010.4 |
| 20260509170511 | 85 | 165 | 3.0 | 7.0 | 0.00 | 0.01 | 0.00 | 85 | 1010.6 |
| 20260509170029 | 85 | 93 | 1.0 | 7.0 | 0.00 | 0.01 | 0.00 | 83 | 1010.6 |
| 20260509165512 | 85 | 146 | 2.0 | 8.0 | 0.00 | 0.01 | 0.00 | 86 | 1010.7 |
| 20260509165008 | 83 | 190 | 2.0 | 8.0 | 0.00 | 0.01 | 0.00 | 87 | 1010.7 |
| 20260509164522 | 83 | 236 | 1.0 | 4.0 | 0.00 | 0.01 | 0.00 | 87 | 1010.6 |
| 20260509164011 | 82 | 163 | 1.0 | 4.0 | 0.00 | 0.01 | 0.00 | 88 | 1010.7 |
| 20260509163513 | 81 | 272 | 1.0 | 4.0 | 0.00 | 0.01 | 0.00 | 89 | 1010.6 |
| 20260509163025 | 80 | 265 | 1.0 | 2.0 | 0.00 | 0.01 | 0.00 | 88 | 1010.6 |
| 20260509162515 | 80 | 9 | 0.0 | 2.0 | 0.00 | 0.01 | 0.00 | 88 | 1010.6 |
| 20260509162011 | 80 | 67 | 0.0 | 1.0 | 0.00 | 0.01 | 0.00 | 88 | 1010.6 |
| 20260509161530 | 79 | 9 | 0.0 | 3.0 | 0.00 | 0.01 | 0.00 | 89 | 1010.6 |
| 20260509161010 | 80 | 9 | 1.0 | 3.0 | 0.00 | 0.01 | 0.00 | 89 | 1010.7 |
| 20260509160507 | 79 | 61 | 1.0 | 2.0 | 0.00 | 0.01 | 0.00 | 89 | 1010.5 |
| 20260509160024 | 79 | 51 | 0.0 | 2.0 | 0.00 | 0.01 | 0.00 | 89 | 1010.5 |
| 20260509155509 | 79 | 22 | 1.0 | 2.0 | 0.00 | 0.01 | 0.00 | 90 | 1010.6 |
| 20260509155013 | 79 | 67 | 0.0 | 2.0 | 0.00 | 0.01 | 0.00 | 89 | 1010.7 |
| 20260509154526 | 79 | 41 | 0.0 | 2.0 | 0.00 | 0.01 | 0.00 | 90 | 1010.7 |
| 20260509154014 | 79 | 26 | 1.0 | 2.0 | 0.00 | 0.01 | 0.00 | 91 | 1010.6 |
| 20260509153511 | 79 | 137 | 0.0 | 2.0 | 0.00 | 0.01 | 0.00 | 91 | 1010.6 |
| 20260509153019 | 79 | 80 | 1.0 | 2.0 | 0.00 | 0.01 | 0.00 | 92 | 1010.4 |
| 20260509152512 | 78 | 137 | 0.0 | 2.0 | 0.00 | 0.01 | 0.00 | 92 | 1010.5 |
| 20260509152009 | 78 | 51 | 0.0 | 2.0 | 0.00 | 0.01 | 0.00 | 92 | 1010.6 |
| 20260509151526 | 78 | 93 | 0.0 | 2.0 | 0.00 | 0.01 | 0.00 | 93 | 1010.7 |
| 20260509151008 | 78 | 93 | 0.0 | 3.0 | 0.00 | 0.01 | 0.00 | 93 | 1010.4 |
| 20260509150512 | 78 | 76 | 1.0 | 3.0 | 0.00 | 0.01 | 0.00 | 93 | 1010.2 |
| 20260509150030 | 77 | 46 | 1.0 | 5.0 | 0.00 | 0.01 | 0.00 | 94 | 1010.4 |
| 20260509145510 | 77 | 107 | 1.0 | 5.0 | 0.00 | 0.01 | 0.00 | 94 | 1010.3 |
| 20260509145011 | 77 | 190 | 1.0 | 4.0 | 0.00 | 0.01 | 0.00 | 94 | 1010.3 |
| 20260509144530 | 77 | 146 | 0.0 | 2.0 | 0.00 | 0.01 | 0.00 | 94 | 1010.2 |
| 20260509144010 | 76 | 44 | 1.0 | 2.0 | 0.00 | 0.01 | 0.00 | 94 | 1010.0 |
| 20260509143513 | 76 | 190 | 0.0 | 2.0 | 0.00 | 0.01 | 0.00 | 95 | 1009.9 |
| 20260509143028 | 76 | 325 | 0.0 | 2.0 | 0.00 | 0.01 | 0.00 | 95 | 1010.0 |
| 20260509142511 | 76 | 93 | 1.0 | 2.0 | 0.00 | 0.01 | 0.00 | 95 | 1009.9 |
| 20260509142010 | 76 | 51 | 0.0 | 2.0 | 0.00 | 0.01 | 0.00 | 95 | 1009.7 |
| 20260509141526 | 76 | 41 | 0.0 | 2.0 | 0.00 | 0.01 | 0.00 | 95 | 1009.8 |
| 20260509141012 | 76 | 205 | 1.0 | 2.0 | 0.00 | 0.01 | 0.00 | 95 | 1009.8 |
| 20260509140511 | 76 | 67 | 0.0 | 2.0 | 0.00 | 0.01 | 0.00 | 95 | 1009.6 |
| 20260509140026 | 76 | 93 | 0.0 | 5.0 | 0.00 | 0.01 | 0.00 | 95 | 1009.5 |
| 20260509135514 | 75 | 205 | 1.0 | 5.0 | 0.00 | 0.01 | 0.00 | 95 | 1009.5 |
| 20260509135012 | 75 | 143 | 1.0 | 4.0 | 0.00 | 0.01 | 0.00 | 95 | 1009.8 |
| 20260509134530 | 75 | 137 | 1.0 | 4.0 | 0.00 | 0.01 | 0.00 | 95 | 1009.8 |
| 20260509134013 | 75 | 178 | 1.0 | 4.0 | 0.00 | 0.01 | 0.00 | 95 | 1010.1 |
| 20260509133516 | 75 | 153 | 1.0 | 4.0 | 0.00 | 0.01 | 0.00 | 95 | 1010.5 |
| 20260509133029 | 75 | 221 | 1.0 | 4.0 | 0.00 | 0.01 | 0.00 | 95 | 1010.6 |
| 20260509132510 | 75 | 129 | 1.0 | 2.0 | 0.00 | 0.01 | 0.00 | 96 | 1010.2 |
| 20260509132011 | 75 | 67 | 0.0 | 4.0 | 0.00 | 0.01 | 0.00 | 96 | 1010.6 |
| 20260509131528 | 75 | 51 | 0.0 | 5.0 | 0.00 | 0.01 | 0.00 | 96 | 1010.6 |
| 20260509131015 | 75 | 142 | 2.0 | 5.0 | 0.00 | 0.01 | 0.00 | 96 | 1010.6 |
| 20260509130511 | 75 | 170 | 0.0 | 2.0 | 0.00 | 0.01 | 0.00 | 95 | 1010.7 |
| 20260509130030 | 75 | 165 | 0.0 | 2.0 | 0.00 | 0.01 | 0.00 | 95 | 1010.8 |
| 20260509125505 | 75 | 205 | 0.0 | 2.0 | 0.00 | 0.01 | 0.00 | 95 | 1011.0 |
| 20260509125009 | 75 | 265 | 0.0 | 2.0 | 0.00 | 0.01 | 0.00 | 95 | 1010.8 |
| 20260509124524 | 75 | 265 | 0.0 | 3.0 | 0.00 | 0.01 | 0.00 | 96 | 1010.4 |
| 20260509124009 | 75 | 161 | 1.0 | 3.0 | 0.00 | 0.01 | 0.00 | 96 | 1010.0 |
| 20260509123508 | 74 | 265 | 0.0 | 3.0 | 0.00 | 0.01 | 0.00 | 95 | 1010.2 |
| 20260509123026 | 74 | 137 | 0.0 | 3.0 | 0.00 | 0.01 | 0.00 | 95 | 1010.5 |
| 20260509122510 | 74 | 165 | 0.0 | 3.0 | 0.00 | 0.01 | 0.00 | 95 | 1010.4 |
| 20260509122008 | 74 | 265 | 1.0 | 2.0 | 0.00 | 0.01 | 0.00 | 95 | 1010.5 |
| 20260509121520 | 74 | 146 | 0.0 | 2.0 | 0.00 | 0.01 | 0.00 | 95 | 1010.5 |
| 20260509121007 | 74 | 161 | 0.0 | 2.0 | 0.00 | 0.01 | 0.00 | 95 | 1010.6 |
| 20260509120510 | 74 | 178 | 0.0 | 2.0 | 0.00 | 0.01 | 0.00 | 95 | 1010.6 |
| 20260509120032 | 74 | 153 | 0.0 | 2.0 | 0.00 | 0.01 | 0.00 | 95 | 1010.5 |
| 20260509115513 | 74 | 93 | 0.0 | 2.0 | 0.00 | 0.01 | 0.00 | 95 | 1010.3 |
| 20260509115010 | 74 | 265 | 0.0 | 1.0 | 0.00 | 0.01 | 0.00 | 95 | 1010.3 |
| 20260509114526 | 74 | 178 | 0.0 | 1.0 | 0.00 | 0.01 | 0.00 | 95 | 1010.2 |
| 20260509114008 | 74 | 119 | 0.0 | 2.0 | 0.00 | 0.01 | 0.00 | 95 | 1010.3 |
| 20260509113508 | 74 | 93 | 0.0 | 2.0 | 0.00 | 0.01 | 0.00 | 95 | 1010.3 |
| 20260509113022 | 74 | 26 | 0.0 | 2.0 | 0.00 | 0.01 | 0.00 | 95 | 1010.2 |
| 20260509112508 | 74 | 34 | 0.0 | 2.0 | 0.00 | 0.01 | 0.00 | 95 | 1010.2 |
| 20260509112007 | 74 | 51 | 1.0 | 2.0 | 0.00 | 0.01 | 0.00 | 95 | 1010.2 |
| 20260509111525 | 74 | 9 | 1.0 | 2.0 | 0.00 | 0.01 | 0.00 | 95 | 1010.1 |
| 20260509111009 | 74 | 34 | 0.0 | 2.0 | 0.00 | 0.01 | 0.00 | 95 | 1010.1 |
| 20260509110514 | 74 | 41 | 0.0 | 2.0 | 0.00 | 0.01 | 0.00 | 95 | 1009.9 |
| 20260509110021 | 74 | 137 | 0.0 | 2.0 | 0.00 | 0.01 | 0.00 | 95 | 1009.8 |
| 20260509105508 | 74 | 205 | 0.0 | 2.0 | 0.00 | 0.01 | 0.00 | 95 | 1009.8 |
| 20260509105008 | 74 | 51 | 0.0 | 2.0 | 0.00 | 0.01 | 0.00 | 95 | 1009.8 |
| 20260509104527 | 74 | 51 | 0.0 | 2.0 | 0.00 | 0.01 | 0.00 | 95 | 1009.7 |
| 20260509104009 | 74 | 34 | 0.0 | 2.0 | 0.00 | 0.01 | 0.00 | 95 | 1009.6 |
| 20260509103514 | 74 | 163 | 1.0 | 3.0 | 0.00 | 0.01 | 0.00 | 95 | 1009.6 |
| 20260509103029 | 74 | 309 | 1.0 | 3.0 | 0.00 | 0.01 | 0.00 | 95 | 1009.5 |
| 20260509102508 | 74 | 211 | 1.0 | 3.0 | 0.00 | 0.01 | 0.00 | 95 | 1009.5 |
| 20260509102008 | 74 | 165 | 1.0 | 2.0 | 0.00 | 0.01 | 0.00 | 95 | 1009.7 |
| 20260509101525 | 74 | 137 | 0.0 | 2.0 | 0.00 | 0.01 | 0.00 | 95 | 1009.8 |
| 20260509101010 | 74 | 211 | 0.0 | 2.0 | 0.00 | 0.01 | 0.00 | 95 | 1009.7 |
| 20260509100511 | 74 | 178 | 0.0 | 2.0 | 0.00 | 0.01 | 0.00 | 95 | 1009.7 |
| 20260509100026 | 74 | 211 | 0.0 | 2.0 | 0.00 | 0.01 | 0.00 | 95 | 1009.6 |
| 20260509095508 | 74 | 51 | 0.0 | 2.0 | 0.00 | 0.01 | 0.00 | 95 | 1009.5 |
| 20260509095010 | 74 | 51 | 0.0 | 2.0 | 0.00 | 0.01 | 0.00 | 95 | 1009.4 |
| 20260509094526 | 74 | 67 | 0.0 | 2.0 | 0.00 | 0.01 | 0.00 | 95 | 1009.4 |
| 20260509094007 | 74 | 34 | 0.0 | 2.0 | 0.00 | 0.01 | 0.00 | 95 | 1009.3 |
| 20260509093508 | 74 | 51 | 0.0 | 2.0 | 0.00 | 0.01 | 0.00 | 95 | 1009.3 |
| 20260509093024 | 74 | 51 | 1.0 | 2.0 | 0.00 | 0.01 | 0.00 | 95 | 1009.2 |
| 20260509092516 | 74 | 9 | 0.0 | 2.0 | 0.00 | 0.01 | 0.00 | 95 | 1009.3 |
| 20260509092011 | 74 | 61 | 1.0 | 2.0 | 0.00 | 0.01 | 0.00 | 95 | 1009.2 |
| 20260509091526 | 74 | 67 | 0.0 | 2.0 | 0.00 | 0.01 | 0.00 | 95 | 1009.5 |
| 20260509091014 | 74 | 51 | 0.0 | 2.0 | 0.00 | 0.01 | 0.00 | 95 | 1009.7 |
| 20260509090511 | 74 | 93 | 0.0 | 2.0 | 0.00 | 0.01 | 0.00 | 95 | 1009.8 |
| 20260509090018 | 74 | 61 | 1.0 | 2.0 | 0.00 | 0.01 | 0.00 | 95 | 1009.8 |
| 20260509085509 | 74 | 9 | 0.0 | 2.0 | 0.00 | 0.01 | 0.00 | 95 | 1009.7 |
| 20260509085010 | 74 | 26 | 0.0 | 1.0 | 0.00 | 0.01 | 0.00 | 95 | 1009.8 |
| 20260509084534 | 74 | 67 | 0.0 | 2.0 | 0.00 | 0.01 | 0.00 | 95 | 1009.8 |
| 20260509084013 | 74 | 51 | 0.0 | 2.0 | 0.00 | 0.01 | 0.00 | 95 | 1009.8 |
| 20260509083510 | 74 | 41 | 1.0 | 2.0 | 0.00 | 0.01 | 0.00 | 94 | 1009.7 |
| 20260509083037 | 74 | 9 | 0.0 | 2.0 | 0.00 | 0.01 | 0.00 | 95 | 1009.6 |
| 20260509082511 | 74 | 34 | 0.0 | 2.0 | 0.00 | 0.01 | 0.00 | 95 | 1009.6 |
| 20260509082010 | 75 | 76 | 0.0 | 2.0 | 0.00 | 0.01 | 0.00 | 95 | 1009.6 |
| 20260509081527 | 75 | 309 | 0.0 | 2.0 | 0.00 | 0.01 | 0.00 | 95 | 1009.6 |
| 20260509081008 | 75 | 119 | 0.0 | 2.0 | 0.00 | 0.01 | 0.00 | 95 | 1009.6 |
| 20260509080507 | 75 | 137 | 0.0 | 2.0 | 0.00 | 0.01 | 0.00 | 95 | 1009.6 |
| 20260509080035 | 75 | 93 | 0.0 | 4.0 | 0.00 | 0.01 | 0.00 | 95 | 1009.5 |
| 20260509075509 | 75 | 178 | 0.0 | 5.0 | 0.00 | 0.01 | 0.00 | 95 | 1009.6 |
| 20260509075010 | 75 | 165 | 1.0 | 5.0 | 0.00 | 0.01 | 0.00 | 95 | 1009.5 |
| 20260509074530 | 75 | 178 | 1.0 | 4.0 | 0.00 | 0.01 | 0.00 | 95 | 1009.6 |
| 20260509074010 | 75 | 67 | 0.0 | 5.0 | 0.00 | 0.01 | 0.00 | 95 | 1009.5 |
| 20260509073508 | 74 | 178 | 2.0 | 5.0 | 0.00 | 0.01 | 0.00 | 95 | 1009.3 |
| 20260509073026 | 74 | 211 | 2.0 | 5.0 | 0.00 | 0.01 | 0.00 | 94 | 1009.2 |
| 20260509072508 | 74 | 200 | 2.0 | 5.0 | 0.00 | 0.01 | 0.00 | 94 | 1009.2 |
| 20260509072010 | 74 | 178 | 2.0 | 7.0 | 0.00 | 0.01 | 0.00 | 94 | 1009.4 |
| 20260509071528 | 74 | 178 | 1.0 | 7.0 | 0.00 | 0.01 | 0.00 | 94 | 1009.6 |
| 20260509071010 | 74 | 171 | 2.0 | 6.0 | 0.00 | 0.01 | 0.00 | 94 | 1009.6 |
| 20260509070510 | 74 | 196 | 2.0 | 5.0 | 0.00 | 0.01 | 0.00 | 94 | 1009.8 |
| 20260509070028 | 74 | 178 | 2.0 | 5.0 | 0.00 | 0.01 | 0.00 | 94 | 1009.8 |
| 20260509065507 | 74 | 196 | 1.0 | 5.0 | 0.00 | 0.01 | 0.00 | 94 | 1009.8 |
| 20260509065008 | 74 | 178 | 1.0 | 4.0 | 0.00 | 0.01 | 0.00 | 94 | 1009.9 |
| 20260509064528 | 74 | 137 | 0.0 | 2.0 | 0.00 | 0.01 | 0.00 | 94 | 1010.1 |
| 20260509064011 | 74 | 93 | 0.0 | 1.0 | 0.00 | 0.01 | 0.00 | 94 | 1010.0 |
| 20260509063508 | 74 | 9 | 0.0 | 1.0 | 0.00 | 0.01 | 0.00 | 94 | 1010.0 |
| 20260509063026 | 74 | 9 | 0.0 | 2.0 | 0.00 | 0.01 | 0.00 | 94 | 1010.0 |
| 20260509062511 | 74 | 93 | 0.0 | 2.0 | 0.00 | 0.01 | 0.00 | 94 | 1010.0 |
| 20260509062012 | 74 | 93 | 0.0 | 2.0 | 0.00 | 0.01 | 0.00 | 94 | 1010.2 |
| 20260509061526 | 74 | 93 | 0.0 | 4.0 | 0.00 | 0.01 | 0.00 | 94 | 1010.3 |
| 20260509061010 | 74 | 93 | 0.0 | 4.0 | 0.00 | 0.01 | 0.00 | 94 | 1010.3 |
| 20260509060508 | 74 | 265 | 1.0 | 3.0 | 0.00 | 0.01 | 0.00 | 94 | 1010.2 |
| 20260509060028 | 74 | 200 | 1.0 | 3.0 | 0.00 | 0.01 | 0.00 | 94 | 1010.2 |
| 20260509055510 | 74 | 137 | 0.0 | 4.0 | 0.00 | 0.01 | 0.00 | 94 | 1010.3 |
| 20260509055008 | 74 | 93 | 0.0 | 4.0 | 0.00 | 0.01 | 0.00 | 94 | 1010.3 |
| 20260509054528 | 74 | 153 | 1.0 | 3.0 | 0.00 | 0.01 | 0.00 | 94 | 1010.3 |
| 20260509054010 | 74 | 178 | 1.0 | 3.0 | 0.00 | 0.01 | 0.00 | 94 | 1010.3 |
| 20260509053508 | 74 | 205 | 1.0 | 3.0 | 0.00 | 0.01 | 0.00 | 94 | 1010.3 |
| 20260509053030 | 74 | 34 | 0.0 | 2.0 | 0.00 | 0.01 | 0.00 | 94 | 1010.3 |
| 20260509052509 | 74 | 153 | 0.0 | 3.0 | 0.00 | 0.01 | 0.00 | 94 | 1010.3 |
| 20260509052013 | 74 | 178 | 1.0 | 4.0 | 0.00 | 0.01 | 0.00 | 94 | 1010.3 |
| 20260509051527 | 74 | 170 | 1.0 | 4.0 | 0.00 | 0.01 | 0.00 | 94 | 1010.2 |
| 20260509051010 | 74 | 150 | 1.0 | 5.0 | 0.00 | 0.01 | 0.00 | 94 | 1010.2 |
| 20260509050511 | 74 | 67 | 1.0 | 5.0 | 0.00 | 0.01 | 0.00 | 94 | 1010.2 |
| 20260509050051 | 74 | 178 | 1.0 | 4.0 | 0.00 | 0.01 | 0.00 | 94 | 1010.2 |
| 20260509045508 | 74 | 159 | 2.0 | 4.0 | 0.00 | 0.01 | 0.01 | 93 | 1010.1 |
| 20260509045010 | 74 | 200 | 1.0 | 3.0 | 0.00 | 0.01 | 0.01 | 93 | 1010.1 |
| 20260509044527 | 74 | 93 | 1.0 | 3.0 | 0.00 | 0.01 | 0.01 | 93 | 1010.2 |
| 20260509044015 | 74 | 178 | 1.0 | 3.0 | 0.00 | 0.01 | 0.01 | 93 | 1010.3 |
| 20260509043511 | 74 | 178 | 1.0 | 6.0 | 0.00 | 0.01 | 0.01 | 93 | 1010.2 |
| 20260509043031 | 74 | 188 | 1.0 | 6.0 | 0.00 | 0.01 | 0.01 | 93 | 1010.2 |
| 20260509042508 | 74 | 93 | 1.0 | 5.0 | 0.00 | 0.01 | 0.01 | 93 | 1010.2 |
| 20260509042015 | 74 | 198 | 2.0 | 5.0 | 0.00 | 0.01 | 0.01 | 93 | 1010.2 |
| 20260509041526 | 74 | 221 | 1.0 | 5.0 | 0.00 | 0.01 | 0.01 | 93 | 1010.2 |
| 20260509041012 | 74 | 325 | 1.0 | 5.0 | 0.00 | 0.01 | 0.01 | 93 | 1010.2 |
| 20260509040515 | 74 | 124 | 1.0 | 5.0 | 0.00 | 0.01 | 0.01 | 93 | 1010.2 |
| 20260509040008 | 74 | 157 | 1.0 | 5.0 | 0.00 | 0.01 | 0.01 | 93 | 1010.2 |
| 20260509035510 | 74 | 188 | 1.0 | 5.0 | 0.00 | 0.01 | 0.01 | 93 | 1010.1 |
| 20260509035009 | 74 | 165 | 1.0 | 5.0 | 0.00 | 0.01 | 0.01 | 93 | 1010.1 |
| 20260509034515 | 74 | 137 | 1.0 | 4.0 | 0.00 | 0.01 | 0.01 | 93 | 1010.0 |
| 20260509034007 | 74 | 86 | 1.0 | 7.0 | 0.00 | 0.01 | 0.01 | 93 | 1010.0 |
| 20260509033507 | 74 | 76 | 0.0 | 7.0 | 0.00 | 0.01 | 0.01 | 93 | 1009.9 |
| 20260509033027 | 74 | 103 | 0.0 | 4.0 | 0.00 | 0.01 | 0.01 | 93 | 1009.8 |
| 20260509032513 | 74 | 137 | 0.0 | 4.0 | 0.00 | 0.01 | 0.01 | 93 | 1009.8 |
| 20260509032013 | 74 | 126 | 1.0 | 4.0 | 0.00 | 0.01 | 0.01 | 92 | 1009.7 |
| 20260509031531 | 74 | 93 | 1.0 | 5.0 | 0.00 | 0.01 | 0.01 | 92 | 1009.6 |
| 20260509031007 | 74 | 72 | 1.0 | 5.0 | 0.00 | 0.01 | 0.01 | 92 | 1009.8 |
| 20260509030511 | 74 | 178 | 1.0 | 5.0 | 0.00 | 0.01 | 0.01 | 92 | 1009.9 |
| 20260509030035 | 74 | 178 | 1.0 | 4.0 | 0.00 | 0.01 | 0.01 | 92 | 1009.8 |
| 20260509025507 | 74 | 131 | 1.0 | 4.0 | 0.00 | 0.01 | 0.01 | 92 | 1009.8 |
| 20260509025011 | 74 | 221 | 1.0 | 3.0 | 0.00 | 0.01 | 0.01 | 92 | 1009.8 |
| 20260509024529 | 74 | 221 | 0.0 | 3.0 | 0.00 | 0.01 | 0.01 | 92 | 1009.8 |
| 20260509024007 | 74 | 119 | 1.0 | 2.0 | 0.00 | 0.01 | 0.01 | 92 | 1009.6 |
| 20260509023506 | 74 | 137 | 1.0 | 2.0 | 0.00 | 0.01 | 0.01 | 92 | 1009.6 |
| 20260509023024 | 74 | 93 | 0.0 | 2.0 | 0.00 | 0.01 | 0.01 | 92 | 1009.5 |
| 20260509022510 | 74 | 41 | 0.0 | 2.0 | 0.00 | 0.01 | 0.01 | 92 | 1009.5 |
| 20260509022012 | 74 | 51 | 0.0 | 3.0 | 0.00 | 0.01 | 0.01 | 92 | 1009.5 |
| 20260509021522 | 74 | 153 | 0.0 | 3.0 | 0.00 | 0.01 | 0.01 | 91 | 1009.4 |
| 20260509021008 | 74 | 80 | 1.0 | 3.0 | 0.00 | 0.01 | 0.01 | 92 | 1009.2 |
| 20260509020512 | 74 | 51 | 0.0 | 3.0 | 0.00 | 0.01 | 0.01 | 92 | 1008.9 |
| 20260509020011 | 74 | 103 | 0.0 | 3.0 | 0.00 | 0.01 | 0.01 | 91 | 1009.0 |
| 20260509015507 | 74 | 178 | 0.0 | 2.0 | 0.00 | 0.01 | 0.01 | 91 | 1009.0 |
| 20260509015007 | 74 | 63 | 0.0 | 2.0 | 0.00 | 0.01 | 0.01 | 91 | 1009.1 |
| 20260509014518 | 74 | 51 | 0.0 | 2.0 | 0.00 | 0.01 | 0.01 | 91 | 1009.2 |
| 20260509014009 | 74 | 51 | 0.0 | 2.0 | 0.00 | 0.01 | 0.01 | 91 | 1009.2 |
| 20260509013511 | 74 | 9 | 0.0 | 3.0 | 0.00 | 0.01 | 0.01 | 91 | 1009.2 |
| 20260509013026 | 74 | 51 | 0.0 | 3.0 | 0.00 | 0.01 | 0.01 | 91 | 1009.1 |
| 20260509012508 | 74 | 76 | 0.0 | 4.0 | 0.00 | 0.01 | 0.01 | 91 | 1009.0 |
| 20260509012007 | 74 | 58 | 1.0 | 4.0 | 0.00 | 0.01 | 0.01 | 91 | 1009.0 |
| 20260509011512 | 74 | 209 | 1.0 | 5.0 | 0.00 | 0.01 | 0.01 | 91 | 1009.1 |
| 20260509011007 | 74 | 168 | 0.0 | 5.0 | 0.00 | 0.01 | 0.01 | 90 | 1009.1 |
| 20260509010511 | 74 | 93 | 1.0 | 4.0 | 0.00 | 0.01 | 0.01 | 90 | 1009.1 |
| 20260509010022 | 74 | 93 | 1.0 | 4.0 | 0.00 | 0.01 | 0.01 | 90 | 1009.1 |
| 20260509005508 | 74 | 26 | 0.0 | 3.0 | 0.00 | 0.01 | 0.01 | 90 | 1009.0 |
| 20260509005012 | 74 | 93 | 1.0 | 3.0 | 0.00 | 0.01 | 0.01 | 90 | 1008.9 |
| 20260509004535 | 74 | 51 | 1.0 | 5.0 | 0.00 | 0.01 | 0.01 | 90 | 1008.8 |
| 20260509004012 | 74 | 93 | 1.0 | 6.0 | 0.00 | 0.01 | 0.01 | 90 | 1008.8 |
| 20260509003511 | 74 | 80 | 2.0 | 6.0 | 0.00 | 0.01 | 0.01 | 90 | 1008.8 |
| 20260509003031 | 75 | 178 | 1.0 | 6.0 | 0.00 | 0.01 | 0.01 | 90 | 1008.9 |
| 20260509002511 | 75 | 93 | 1.0 | 6.0 | 0.00 | 0.01 | 0.01 | 90 | 1008.9 |
| 20260509002010 | 75 | 184 | 1.0 | 4.0 | 0.00 | 0.01 | 0.01 | 90 | 1008.9 |
| 20260509001531 | 75 | 83 | 1.0 | 4.0 | 0.00 | 0.01 | 0.01 | 90 | 1009.0 |
| 20260509001012 | 75 | 51 | 1.0 | 3.0 | 0.00 | 0.01 | 0.01 | 90 | 1009.0 |
| 20260509000509 | 75 | 93 | 1.0 | 3.0 | 0.00 | 0.01 | 0.01 | 90 | 1009.0 |
| 20260509000035 | 75 | 93 | 2.0 | 3.0 | 0.00 | 0.01 | 0.01 | 90 | 1009.0 |
| 20260508235510 | 75 | 103 | 1.0 | 3.0 | 0.00 | 0.01 | 0.01 | 90 | 1009.2 |
| 20260508235011 | 75 | 51 | 1.0 | 4.0 | 0.00 | 0.01 | 0.01 | 90 | 1009.1 |
| 20260508234524 | 75 | 137 | 1.0 | 4.0 | 0.00 | 0.01 | 0.01 | 90 | 1008.9 |
| 20260508234010 | 75 | 83 | 1.0 | 3.0 | 0.00 | 0.01 | 0.01 | 90 | 1008.9 |
| 20260508233510 | 75 | 76 | 2.0 | 3.0 | 0.00 | 0.01 | 0.01 | 90 | 1008.9 |
| 20260508233028 | 75 | 83 | 1.0 | 3.0 | 0.00 | 0.01 | 0.01 | 90 | 1008.9 |
| 20260508232507 | 75 | 111 | 1.0 | 4.0 | 0.00 | 0.01 | 0.01 | 89 | 1009.0 |
| 20260508232009 | 75 | 93 | 1.0 | 6.0 | 0.00 | 0.01 | 0.01 | 89 | 1009.1 |
| 20260508231530 | 75 | 198 | 2.0 | 6.0 | 0.00 | 0.01 | 0.01 | 89 | 1009.2 |
| 20260508231011 | 75 | 161 | 1.0 | 5.0 | 0.00 | 0.01 | 0.01 | 88 | 1009.2 |
| 20260508230510 | 75 | 101 | 1.0 | 5.0 | 0.00 | 0.01 | 0.01 | 88 | 1009.3 |
| 20260508230022 | 76 | 178 | 1.0 | 6.0 | 0.00 | 0.01 | 0.01 | 88 | 1009.4 |
| 20260508225509 | 76 | 153 | 1.0 | 6.0 | 0.00 | 0.01 | 0.01 | 88 | 1009.2 |
| 20260508225010 | 76 | 132 | 1.0 | 5.0 | 0.00 | 0.01 | 0.01 | 88 | 1009.2 |
| 20260508224531 | 76 | 334 | 1.0 | 5.0 | 0.00 | 0.01 | 0.01 | 88 | 1009.2 |
| 20260508224009 | 76 | 80 | 1.0 | 4.0 | 0.00 | 0.01 | 0.01 | 88 | 1009.2 |
| 20260508223510 | 77 | 101 | 1.0 | 4.0 | 0.00 | 0.01 | 0.01 | 88 | 1009.0 |
| 20260508223034 | 76 | 58 | 1.0 | 8.0 | 0.00 | 0.01 | 0.01 | 88 | 1009.1 |